• In Czech Republic
  • List of Countries
  • For 7 days
  • Water Temperature
  • Satellite Maps
  • Weather Map
  • Weather Widgets
  • user-avatar
    Login

    Hourly Weather Garoua

    Today, 23 February, Friday

    Time Temperature Precipitation Wind Pressure Humidity
    00:00 +35°C° 0 mm 2 mps 738 mmHg 38%
    01:00 +34°C° 0 mm 1 mps 738 mmHg 39%
    02:00 +33°C° 0 mm 1 mps 738 mmHg 40%
    03:00 +33°C° 0 mm 1 mps 738 mmHg 41%
    04:00 +32°C° 0 mm 1 mps 738 mmHg 42%
    05:00 +32°C° 0 mm 1 mps 738 mmHg 42%
    06:00 +32°C° 0 mm 1 mps 738 mmHg 42%
    07:00 +32°C° 0 mm 1 mps 739 mmHg 42%
    08:00 +35°C° 0 mm 2 mps 739 mmHg 38%
    09:00 +37°C° 0 mm 3 mps 739 mmHg 34%
    10:00 +40°C° 0 mm 4 mps 740 mmHg 30%
    11:00 +42°C° 0 mm 3 mps 739 mmHg 27%
    12:00 +43°C° 0 mm 2 mps 738 mmHg 23%
    13:00 +45°C° 0 mm 2 mps 738 mmHg 20%
    14:00 +43°C° 0 mm 2 mps 737 mmHg 20%
    15:00 +43°C° 0 mm 2 mps 737 mmHg 21%
    16:00 +42°C° 0 mm 2 mps 737 mmHg 21%
    17:00 +41°C° 0 mm 2 mps 737 mmHg 23%
    18:00 +40°C° 0 mm 2 mps 737 mmHg 25%
    19:00 +38°C° 0 mm 2 mps 737 mmHg 27%
    20:00 +38°C° 0 mm 2 mps 738 mmHg 29%
    21:00 +37°C° 0 mm 2 mps 738 mmHg 31%
    22:00 +35°C° 0 mm 1 mps 739 mmHg 32%
    23:00 +34°C° 0 mm 1 mps 739 mmHg 33%

    Tomorrow, 24 February, Saturday

    Time Temperature Precipitation Wind Pressure Humidity
    00:00 +35°C° 0 mm 2 mps 738 mmHg 35%
    01:00 +34°C° 0 mm 2 mps 738 mmHg 36%
    02:00 +32°C° 0 mm 2 mps 738 mmHg 36%
    03:00 +32°C° 0 mm 2 mps 738 mmHg 36%
    04:00 +31°C° 0 mm 2 mps 738 mmHg 36%
    05:00 +30°C° 0 mm 1 mps 739 mmHg 37%
    06:00 +30°C° 0 mm 1 mps 739 mmHg 37%
    07:00 +30°C° 0 mm 1 mps 740 mmHg 37%
    08:00 +33°C° 0 mm 1 mps 740 mmHg 30%
    09:00 +36°C° 0 mm 1 mps 740 mmHg 24%
    10:00 +40°C° 0 mm 1 mps 741 mmHg 18%
    11:00 +42°C° 0 mm 1 mps 740 mmHg 16%
    12:00 +43°C° 0 mm 2 mps 739 mmHg 14%
    13:00 +46°C° 0 mm 2 mps 738 mmHg 12%
    14:00 +46°C° 0 mm 2 mps 738 mmHg 11%
    15:00 +46°C° 0 mm 2 mps 737 mmHg 11%
    16:00 +46°C° 0 mm 2 mps 736 mmHg 10%
    17:00 +43°C° 0 mm 2 mps 736 mmHg 11%
    18:00 +41°C° 0 mm 2 mps 737 mmHg 12%
    19:00 +40°C° 0 mm 1 mps 737 mmHg 13%
    20:00 +39°C° 0 mm 1 mps 737 mmHg 14%
    21:00 +37°C° 0 mm 1 mps 738 mmHg 15%
    22:00 +36°C° 0 mm 1 mps 739 mmHg 15%
    23:00 +36°C° 0 mm 1 mps 739 mmHg 16%

    Day after tomorrow, 25 February, Sunday

    Time Temperature Precipitation Wind Pressure Humidity
    00:00 +35°C° 0 mm 1 mps 738 mmHg 17%
    01:00 +34°C° 0 mm 1 mps 738 mmHg 18%
    02:00 +33°C° 0 mm 1 mps 738 mmHg 19%
    03:00 +33°C° 0 mm 1 mps 738 mmHg 20%
    04:00 +32°C° 0 mm 1 mps 738 mmHg 20%
    05:00 +32°C° 0 mm 1 mps 739 mmHg 21%
    06:00 +32°C° 0 mm 1 mps 740 mmHg 22%
    07:00 +31°C° 0 mm 1 mps 740 mmHg 23%
    08:00 +34°C° 0 mm 1 mps 741 mmHg 21%
    09:00 +37°C° 0 mm 1 mps 741 mmHg 19%
    10:00 +41°C° 0 mm 1 mps 742 mmHg 17%
    11:00 +43°C° 0 mm 1 mps 741 mmHg 15%
    12:00 +45°C° 0 mm 2 mps 740 mmHg 12%
    13:00 +46°C° 0 mm 2 mps 739 mmHg 10%
    14:00 +46°C° 0 mm 2 mps 738 mmHg 10%
    15:00 +46°C° 0 mm 2 mps 737 mmHg 10%
    16:00 +46°C° 0 mm 2 mps 736 mmHg 9%
    17:00 +43°C° 0 mm 2 mps 737 mmHg 10%
    18:00 +41°C° 0 mm 1 mps 737 mmHg 11%
    19:00 +39°C° 0 mm 1 mps 737 mmHg 12%
    20:00 +39°C° 0 mm 1 mps 738 mmHg 13%
    21:00 +37°C° 0 mm 1 mps 738 mmHg 13%
    22:00 +36°C° 0 mm 1 mps 739 mmHg 14%
    23:00 +35°C° 0 mm 1 mps 739 mmHg 15%

    26 February, Monday

    Time Temperature Precipitation Wind Pressure Humidity
    00:00 +34°C° 0 mm 1 mps 738 mmHg 15%
    01:00 +34°C° 0 mm 1 mps 738 mmHg 16%
    02:00 +33°C° 0 mm 1 mps 738 mmHg 16%
    03:00 +32°C° 0 mm 1 mps 738 mmHg 17%
    04:00 +32°C° 0 mm 1 mps 738 mmHg 18%
    05:00 +31°C° 0 mm 1 mps 738 mmHg 20%
    06:00 +31°C° 0 mm 1 mps 739 mmHg 23%
    07:00 +31°C° 0 mm 1 mps 740 mmHg 25%
    08:00 +33°C° 0 mm 1 mps 740 mmHg 24%
    09:00 +37°C° 0 mm 2 mps 740 mmHg 23%
    10:00 +40°C° 0 mm 2 mps 741 mmHg 23%
    11:00 +42°C° 0 mm 2 mps 740 mmHg 18%
    12:00 +44°C° 0 mm 1 mps 739 mmHg 14%
    13:00 +47°C° 0 mm 1 mps 738 mmHg 10%
    14:00 +46°C° 0 mm 1 mps 737 mmHg 10%
    15:00 +46°C° 0 mm 1 mps 737 mmHg 9%
    16:00 +46°C° 0 mm 2 mps 736 mmHg 8%
    17:00 +43°C° 0 mm 1 mps 736 mmHg 9%
    18:00 +42°C° 0 mm 1 mps 737 mmHg 10%
    19:00 +40°C° 0 mm 1 mps 737 mmHg 11%
    20:00 +39°C° 0 mm 1 mps 738 mmHg 12%
    21:00 +37°C° 0 mm 1 mps 738 mmHg 13%
    22:00 +36°C° 0 mm 1 mps 739 mmHg 15%
    23:00 +36°C° 0 mm 1 mps 739 mmHg 17%

    27 February, Tuesday

    Time Temperature Precipitation Wind Pressure Humidity
    00:00 +35°C° 0 mm 1 mps 739 mmHg 19%
    01:00 +34°C° 0 mm 1 mps 739 mmHg 21%
    02:00 +34°C° 0 mm 2 mps 739 mmHg 25%
    03:00 +34°C° 0 mm 2 mps 739 mmHg 28%
    04:00 +32°C° 0 mm 2 mps 739 mmHg 31%
    05:00 +32°C° 0 mm 2 mps 739 mmHg 36%
    06:00 +31°C° 0 mm 2 mps 740 mmHg 41%
    07:00 +31°C° 0 mm 2 mps 740 mmHg 45%
    08:00 +34°C° 0 mm 2 mps 741 mmHg 41%
    09:00 +36°C° 0 mm 3 mps 741 mmHg 37%
    10:00 +38°C° 0 mm 3 mps 741 mmHg 33%
    11:00 +40°C° 0 mm 2 mps 741 mmHg 27%
    12:00 +42°C° 0 mm 2 mps 740 mmHg 21%
    13:00 +45°C° 0 mm 1 mps 739 mmHg 14%
    14:00 +46°C° 0 mm 2 mps 738 mmHg 13%
    15:00 +45°C° 0 mm 2 mps 738 mmHg 12%
    16:00 +45°C° 0 mm 2 mps 737 mmHg 10%
    17:00 +42°C° 0 mm 1 mps 737 mmHg 11%
    18:00 +41°C° 0 mm 1 mps 738 mmHg 12%
    19:00 +39°C° 0 mm 1 mps 738 mmHg 13%
    20:00 +37°C° 0 mm 1 mps 739 mmHg 14%
    21:00 +36°C° 0 mm 1 mps 739 mmHg 16%
    22:00 +35°C° 0 mm 1 mps 739 mmHg 18%
    23:00 +34°C° 0 mm 1 mps 739 mmHg 20%

    28 February, Wednesday

    Time Temperature Precipitation Wind Pressure Humidity
    00:00 +35°C° 0 mm 2 mps 739 mmHg 22%
    01:00 +34°C° 0 mm 2 mps 739 mmHg 24%
    02:00 +34°C° 0 mm 2 mps 739 mmHg 26%
    03:00 +32°C° 0 mm 2 mps 739 mmHg 28%
    04:00 +31°C° 0 mm 2 mps 740 mmHg 30%
    05:00 +31°C° 0 mm 2 mps 740 mmHg 33%
    06:00 +31°C° 0 mm 1 mps 741 mmHg 35%
    07:00 +30°C° 0 mm 1 mps 741 mmHg 38%
    08:00 +33°C° 0 mm 1 mps 741 mmHg 33%
    09:00 +37°C° 0 mm 2 mps 742 mmHg 28%
    10:00 +39°C° 0 mm 2 mps 742 mmHg 23%
    11:00 +41°C° 0 mm 2 mps 741 mmHg 19%
    12:00 +43°C° 0 mm 2 mps 740 mmHg 14%
    13:00 +45°C° 0 mm 1 mps 740 mmHg 10%
    14:00 +45°C° 0 mm 1 mps 739 mmHg 9%
    15:00 +45°C° 0 mm 1 mps 738 mmHg 8%
    16:00 +46°C° 0 mm 2 mps 738 mmHg 7%
    17:00 +43°C° 0 mm 1 mps 738 mmHg 8%
    18:00 +41°C° 0 mm 1 mps 738 mmHg 8%
    19:00 +39°C° 0 mm 1 mps 738 mmHg 9%
    20:00 +37°C° 0 mm 1 mps 739 mmHg 10%
    21:00 +36°C° 0 mm 1 mps 739 mmHg 10%
    22:00 +36°C° 0 mm 1 mps 739 mmHg 11%
    23:00 +35°C° 0 mm 1 mps 739 mmHg 11%
    Show more